Time,TemperatureF,DewpointF,PressureIn,WindDirection,WindDirectionDegrees,WindSpeedMPH,WindSpeedGustMPH,Humidity,HourlyPrecipIn,Conditions,Clouds,dailyrainin,SolarRadiationWatts/m^2,SoftwareType,DateUTC
2013-08-08 00:40:00,61.0,31.0,30.08,ESE,113,1.0,5.0,32,-99.99,,,-99.99,0.000000,,2013-08-08 07:40:00,
2013-08-08 01:22:00,61.0,31.0,30.08,ESE,113,1.0,5.0,32,-99.99,,,-99.99,0.000000,,2013-08-08 08:22:00,
2013-08-08 01:32:00,61.0,31.0,30.08,ESE,113,1.0,5.0,32,-99.99,,,-99.99,0.000000,,2013-08-08 08:32:00,
2013-08-08 01:40:00,58.0,38.0,30.07,West,277,2.0,5.0,48,-99.99,,,-99.99,0.000000,,2013-08-08 08:40:00,
2013-08-08 02:32:00,58.0,38.0,30.07,West,277,2.0,5.0,48,-99.99,,,-99.99,0.000000,,2013-08-08 09:32:00,
2013-08-08 02:40:00,54.0,41.0,30.06,WSW,241,2.0,5.0,61,-99.99,,,-99.99,0.000000,,2013-08-08 09:40:00,
2013-08-08 03:22:00,54.0,41.0,30.06,WSW,241,2.0,5.0,61,-99.99,,,-99.99,0.000000,,2013-08-08 10:22:00,
2013-08-08 03:32:00,54.0,41.0,30.06,WSW,241,2.0,5.0,61,-99.99,,,-99.99,0.000000,,2013-08-08 10:32:00,
2013-08-08 08:40:00,59.0,41.0,30.05,NW,325,4.0,6.0,52,-99.99,,,-99.99,430.000000,,2013-08-08 15:40:00,
2013-08-08 09:32:00,59.0,41.0,30.05,NW,325,4.0,6.0,52,-99.99,,,-99.99,430.000000,,2013-08-08 16:32:00,
2013-08-08 09:40:00,65.0,38.0,30.05,WNW,296,2.0,5.0,37,-99.99,,,-99.99,630.000000,,2013-08-08 16:40:00,
2013-08-08 10:32:00,65.0,38.0,30.05,WNW,296,2.0,5.0,37,-99.99,,,-99.99,630.000000,,2013-08-08 17:32:00,
2013-08-08 10:40:00,71.0,40.0,30.03,WNW,290,2.0,5.0,32,-99.99,,,-99.99,790.000000,,2013-08-08 17:40:00,
2013-08-08 17:40:00,74.0,43.0,29.94,West,277,17.0,28.0,34,-99.99,,,-99.99,420.000000,,2013-08-09 00:40:00,
2013-08-08 18:23:00,74.0,43.0,29.94,West,277,17.0,28.0,34,-99.99,,,-99.99,420.000000,,2013-08-09 01:23:00,
2013-08-08 18:33:00,74.0,43.0,29.94,West,277,17.0,28.0,34,-99.99,,,-99.99,420.000000,,2013-08-09 01:33:00,
2013-08-08 18:40:00,71.0,42.0,29.95,West,279,14.0,21.0,36,-99.99,,,-99.99,90.000000,,2013-08-09 01:40:00,
2013-08-08 21:40:00,66.0,41.0,29.98,West,273,14.0,20.0,41,-99.99,,,-99.99,0.000000,,2013-08-09 04:40:00,
2013-08-08 22:32:00,66.0,41.0,29.98,West,273,14.0,20.0,41,-99.99,,,-99.99,0.000000,,2013-08-09 05:32:00,
2013-08-08 22:40:00,61.0,43.0,30.01,WSW,244,5.0,8.0,52,-99.99,,,-99.99,0.000000,,2013-08-09 05:40:00,
2013-08-08 23:21:00,61.0,43.0,30.01,WSW,244,5.0,8.0,52,-99.99,,,-99.99,0.000000,,2013-08-09 06:21:00,
2013-08-08 23:32:00,61.0,43.0,30.01,WSW,244,5.0,8.0,52,-99.99,,,-99.99,0.000000,,2013-08-09 06:32:00,
2013-08-08 23:40:00,58.0,43.0,30.02,East,101,3.0,3.0,57,-99.99,,,-99.99,0.000000,,2013-08-09 06:40:00,